User: anonymous   Login
Location: Unspecified
(0.0000°N, 0.0000°E)
Time: 17:50:33
(UTC+00:00)
Language:

Tiros 1 despin weight - Orbit

View from above orbital plane
View from above orbital plane
View from above satellite
View from above satellite

Ground track
Ground track

The orbit data is extracted from the following two-line orbital elements,

1 00115U 60002D   15186.43975057  .00001348  00000-0  19307-3 0  9995
2 00115 048.1677 326.7181 0035755 202.4132 157.5219 14.82181153944459
Epoch (UTC): 05 July 2015 10:33:14
Eccentricity: 0.0035755
inclination: 48.1677°
perigee height: 597 km
apogee height: 647 km
right ascension of ascending node: 326.7181°
argument of perigee: 202.4132°
revolutions per day: 14.82181153
mean anomaly at epoch: 157.5219°
orbit number at epoch: 94445

The dashed part of the orbit path shows where the satellite is in the earth's shadow,  

DLR